TimeEDT,TemperatureF,Dew PointF,Humidity,Sea Level PressureIn,VisibilityMPH,Wind Direction,Wind SpeedMPH,Gust SpeedMPH,PrecipitationIn,Events,Conditions,WindDirDegrees,DateUTC
12:15 AM,51.8,31.6,46,29.92,10.0,West,6.9,-,N/A,,Overcast,270,2013-10-27 04:15:00
12:35 AM,51.8,31.6,46,29.91,10.0,WSW,4.6,-,N/A,,Overcast,250,2013-10-27 04:35:00
12:55 AM,51.8,31.6,46,29.91,10.0,West,5.8,-,N/A,,Overcast,260,2013-10-27 04:55:00
1:15 AM,51.8,32.0,47,29.91,10.0,West,6.9,-,N/A,,Overcast,260,2013-10-27 05:15:00
1:35 AM,51.8,32.0,47,29.90,10.0,West,6.9,-,N/A,,Overcast,260,2013-10-27 05:35:00
1:55 AM,51.4,32.0,47,29.91,10.0,West,5.8,-,N/A,,Overcast,270,2013-10-27 05:55:00
2:15 AM,51.1,32.4,49,29.90,10.0,West,3.5,-,N/A,,Overcast,280,2013-10-27 06:15:00
2:35 AM,51.1,32.4,49,29.90,10.0,West,5.8,-,N/A,,Overcast,270,2013-10-27 06:35:00
2:55 AM,50.9,32.5,49,29.90,10.0,West,5.8,-,N/A,,Overcast,260,2013-10-27 06:55:00
3:15 AM,50.5,32.9,51,29.90,10.0,West,4.6,-,N/A,,Overcast,270,2013-10-27 07:15:00
3:35 AM,50.0,32.5,51,29.89,10.0,West,3.5,-,N/A,,Overcast,260,2013-10-27 07:35:00
3:55 AM,50.0,32.2,50,29.89,10.0,West,4.6,-,N/A,,Overcast,260,2013-10-27 07:55:00
4:15 AM,50.0,32.0,50,29.89,10.0,West,4.6,-,N/A,,Mostly Cloudy,280,2013-10-27 08:15:00
4:35 AM,49.1,32.0,52,29.89,10.0,West,4.6,-,N/A,,Scattered Clouds,280,2013-10-27 08:35:00
4:55 AM,49.1,31.8,51,29.89,10.0,West,5.8,-,N/A,,Clear,260,2013-10-27 08:55:00
5:15 AM,48.4,31.8,53,29.90,10.0,West,5.8,-,N/A,,Clear,260,2013-10-27 09:15:00
5:35 AM,48.2,31.6,53,29.91,10.0,West,5.8,-,N/A,,Clear,270,2013-10-27 09:35:00
5:55 AM,47.3,31.6,55,29.92,10.0,West,3.5,-,N/A,,Clear,270,2013-10-27 09:55:00
6:15 AM,46.4,31.5,56,29.93,10.0,West,3.5,-,N/A,,Clear,260,2013-10-27 10:15:00
6:35 AM,46.9,31.3,55,29.94,10.0,WSW,4.6,-,N/A,,Clear,250,2013-10-27 10:35:00
6:55 AM,46.4,31.1,55,29.94,10.0,West,4.6,-,N/A,,Clear,260,2013-10-27 10:55:00
7:15 AM,46.2,31.1,56,29.94,10.0,WSW,3.5,-,N/A,,Clear,250,2013-10-27 11:15:00
7:35 AM,46.0,31.3,56,29.95,10.0,West,6.9,-,N/A,,Clear,260,2013-10-27 11:35:00
7:55 AM,45.9,31.6,58,29.96,10.0,West,6.9,-,N/A,,Clear,260,2013-10-27 11:55:00
8:15 AM,46.6,32.0,57,29.96,10.0,West,5.8,-,N/A,,Clear,270,2013-10-27 12:15:00
8:35 AM,47.5,32.0,55,29.98,10.0,WSW,3.5,-,N/A,,Clear,250,2013-10-27 12:35:00
8:55 AM,48.2,32.4,54,29.99,10.0,West,5.8,-,N/A,,Clear,280,2013-10-27 12:55:00
9:15 AM,50.0,32.9,52,30.00,10.0,West,5.8,-,N/A,,Clear,280,2013-10-27 13:15:00
9:35 AM,51.3,33.3,50,29.99,10.0,NW,11.5,17.3,N/A,,Clear,310,2013-10-27 13:35:00
9:55 AM,52.2,33.3,49,30.00,10.0,WNW,10.4,19.6,N/A,,Clear,290,2013-10-27 13:55:00
10:15 AM,52.9,32.9,47,30.00,10.0,NW,15.0,21.9,N/A,,Clear,310,2013-10-27 14:15:00
10:35 AM,54.3,32.9,44,30.00,10.0,NW,16.1,21.9,N/A,,Clear,310,2013-10-27 14:35:00
10:55 AM,54.9,32.7,43,30.00,10.0,WNW,15.0,18.4,N/A,,Clear,300,2013-10-27 14:55:00
11:15 AM,55.8,32.5,41,30.01,10.0,NW,10.4,21.9,N/A,,Clear,320,2013-10-27 15:15:00
11:35 AM,56.1,32.4,41,30.01,10.0,WNW,11.5,-,N/A,,Clear,290,2013-10-27 15:35:00
11:55 AM,56.7,32.2,40,30.00,10.0,NW,11.5,17.3,N/A,,Clear,310,2013-10-27 15:55:00
12:15 PM,56.7,32.2,40,29.99,10.0,WNW,15.0,20.7,N/A,,Clear,300,2013-10-27 16:15:00
12:35 PM,57.7,32.2,38,29.99,2.0,WNW,16.1,19.6,N/A,,Haze,300,2013-10-27 16:35:00
12:55 PM,57.7,32.2,38,29.98,10.0,NW,12.7,19.6,N/A,,Clear,310,2013-10-27 16:55:00
1:15 PM,59.0,32.7,37,29.98,10.0,NW,11.5,18.4,N/A,,Clear,310,2013-10-27 17:15:00
1:35 PM,58.5,32.0,37,29.98,5.0,WNW,11.5,17.3,N/A,,Haze,300,2013-10-27 17:35:00
1:55 PM,60.4,32.0,34,29.97,10.0,NW,13.8,21.9,N/A,,Scattered Clouds,320,2013-10-27 17:55:00
2:15 PM,60.3,31.3,34,29.96,10.0,WNW,15.0,23.0,N/A,,Scattered Clouds,290,2013-10-27 18:15:00
2:35 PM,59.9,30.9,33,29.97,10.0,WNW,11.5,21.9,N/A,,Clear,290,2013-10-27 18:35:00
2:55 PM,60.1,30.7,33,29.97,10.0,NW,10.4,-,N/A,,Scattered Clouds,310,2013-10-27 18:55:00
3:15 PM,60.4,31.1,33,29.97,0.8,WNW,17.3,20.7,N/A,,Haze,290,2013-10-27 19:15:00
3:35 PM,59.9,31.1,34,29.97,10.0,NW,13.8,21.9,N/A,,Clear,310,2013-10-27 19:35:00
3:55 PM,60.3,31.5,34,29.98,10.0,NNW,8.1,19.6,N/A,,Mostly Cloudy,330,2013-10-27 19:55:00
4:15 PM,59.2,30.2,33,29.99,10.0,NW,12.7,23.0,N/A,,Scattered Clouds,310,2013-10-27 20:15:00
4:35 PM,58.6,30.2,34,29.99,10.0,NW,13.8,21.9,N/A,,Clear,310,2013-10-27 20:35:00
4:55 PM,58.3,30.6,35,30.00,10.0,NW,16.1,-,N/A,,Scattered Clouds,310,2013-10-27 20:55:00
5:15 PM,57.9,30.2,35,30.01,10.0,WNW,16.1,19.6,N/A,,Scattered Clouds,290,2013-10-27 21:15:00
5:35 PM,56.7,29.5,35,30.01,10.0,WNW,12.7,18.4,N/A,,Scattered Clouds,300,2013-10-27 21:35:00
5:55 PM,55.8,29.3,36,30.02,10.0,WNW,10.4,17.3,N/A,,Clear,300,2013-10-27 21:55:00
6:35 PM,54.0,29.1,39,30.04,10.0,WNW,10.4,-,N/A,,Scattered Clouds,290,2013-10-27 22:35:00
6:55 PM,53.6,29.1,39,30.06,10.0,WNW,9.2,-,N/A,,Clear,300,2013-10-27 22:55:00
7:15 PM,53.1,29.1,40,30.07,10.0,WNW,11.5,-,N/A,,Scattered Clouds,300,2013-10-27 23:15:00
7:35 PM,52.5,29.5,41,30.07,10.0,WNW,8.1,-,N/A,,Scattered Clouds,290,2013-10-27 23:35:00
7:55 PM,51.8,30.0,43,30.08,10.0,WNW,6.9,-,N/A,,Clear,290,2013-10-27 23:55:00
8:15 PM,52.0,30.2,43,30.09,10.0,WNW,4.6,-,N/A,,Clear,290,2013-10-28 00:15:00
8:35 PM,50.9,30.9,46,30.09,10.0,West,5.8,-,N/A,,Clear,280,2013-10-28 00:35:00
8:55 PM,50.7,30.9,47,30.10,10.0,WNW,4.6,-,N/A,,Clear,290,2013-10-28 00:55:00
9:15 PM,50.5,30.9,47,30.10,10.0,West,5.8,-,N/A,,Clear,270,2013-10-28 01:15:00
9:35 PM,50.0,31.1,48,30.12,10.0,West,5.8,-,N/A,,Clear,270,2013-10-28 01:35:00
9:55 PM,50.0,30.9,48,30.13,10.0,West,5.8,-,N/A,,Clear,280,2013-10-28 01:55:00
10:15 PM,49.3,30.9,49,30.14,10.0,West,5.8,-,N/A,,Clear,280,2013-10-28 02:15:00
10:35 PM,48.2,31.1,52,30.14,10.0,WNW,5.8,-,N/A,,Clear,290,2013-10-28 02:35:00
10:55 PM,47.5,31.1,53,30.15,10.0,West,3.5,-,N/A,,Clear,270,2013-10-28 02:55:00
11:15 PM,47.5,31.1,53,30.15,10.0,West,3.5,-,N/A,,Clear,280,2013-10-28 03:15:00
11:35 PM,45.5,31.6,58,30.15,10.0,WNW,4.6,-,N/A,,Clear,300,2013-10-28 03:35:00
11:55 PM,45.1,32.0,60,30.16,10.0,WNW,5.8,-,N/A,,Clear,300,2013-10-28 03:55:00